Location: F?ge?el
(45.8833°N, 22.5833°E)
Time: 08:42:21
(UTC+00:00)

Cosmos 1190 Rocket - Pass Details

Date: 17 November 2025
Orbit: 752 x 775 km, 74.1° (Epoch: 13 December)

Event Time Altitude Azimuth Distance (km) Brightness Sun altitude
Rises 16:50:47 0° 201° (SSW) 3,238 7.6 -19.8°
Reaches altitude 10° 16:53:09 10° 202° (SSW) 2,316 6.8 -20.2°
Maximum altitude 16:58:25 85° 290° (WNW) 785 4.0 -21.1°
Enters shadow 17:02:13 20° 19° (NNE) 1,751 5.6 -21.8°
